ZKWAC NZPM-NZAP

Flight info

Callsign ZKWAC
Flight time N/A
Altitude 10000
Route LERSO DCT ENRUL DCT AVPIB/N0109F090 DCT 3914S17544E DCT AKABA DCT AP711
Aircraft C172/L-SFG/C

Departure

Time 2026-04-30 10:03
Airport Palmerston North Airport (NZPM)

Arrival

Time N/A
Airport Taupo Airport (NZAP)
Time Latitude Longitude Altitude Speed Heading
2026-04-30 09:46 -40.32299 175.62104 159 ft 0 kts 182°
2026-04-30 09:53 -40.32304 175.62116 159 ft 0 kts 52°
2026-04-30 09:54 -40.32285 175.62111 159 ft 8 kts 326°
2026-04-30 09:54 -40.32305 175.62097 159 ft 5 kts 265°
2026-04-30 09:54 -40.32293 175.62072 158 ft 5 kts 306°
2026-04-30 09:54 -40.32274 175.62038 158 ft 5 kts 305°
2026-04-30 09:55 -40.32236 175.61835 155 ft 30 kts 270°
2026-04-30 09:55 -40.32238 175.61578 152 ft 26 kts 270°
2026-04-30 09:55 -40.32185 175.61458 150 ft 14 kts 320°
2026-04-30 09:55 -40.32139 175.61407 150 ft 7 kts 320°
2026-04-30 09:56 -40.32102 175.61367 149 ft 7 kts 320°
2026-04-30 09:56 -40.32099 175.61364 149 ft 0 kts 317°
2026-04-30 09:58 -40.32079 175.61352 149 ft 9 kts 355°
2026-04-30 09:58 -40.32056 175.61350 148 ft 0 kts 358°
2026-04-30 10:00 -40.32051 175.61350 147 ft 4 kts 360°
2026-04-30 10:00 -40.31989 175.61358 146 ft 13 kts 46°
2026-04-30 10:01 -40.31981 175.61389 146 ft 0 kts 89°
2026-04-30 10:02 -40.31983 175.61495 149 ft 36 kts 91°
2026-04-30 10:02 -40.31978 175.62022 213 ft 68 kts 94°
2026-04-30 10:02 -40.31970 175.62614 463 ft 66 kts 92°
2026-04-30 10:02 -40.31958 175.63225 663 ft 67 kts 93°
2026-04-30 10:03 -40.31965 175.63870 869 ft 73 kts 85°
2026-04-30 10:03 -40.31678 175.64422 1161 ft 75 kts 37°
2026-04-30 10:03 -40.31157 175.64671 1384 ft 83 kts 28°
2026-04-30 10:03 -40.30698 175.65060 1662 ft 79 kts 51°
2026-04-30 10:04 -40.30255 175.65548 1849 ft 87 kts 51°
2026-04-30 10:04 -40.29803 175.66060 2123 ft 84 kts 48°
2026-04-30 10:04 -40.29251 175.66373 2344 ft 93 kts 21°
2026-04-30 10:04 -40.28591 175.66322 2608 ft 96 kts 359°
2026-04-30 10:05 -40.27911 175.66216 2684 ft 104 kts 25°
2026-04-30 10:05 -40.27179 175.66501 2679 ft 116 kts 26°
2026-04-30 10:05 -40.26384 175.66763 2695 ft 117 kts 26°
2026-04-30 10:05 -40.25601 175.67010 2685 ft 115 kts 25°
2026-04-30 10:06 -40.24835 175.67248 2696 ft 114 kts 25°
2026-04-30 10:06 -40.24064 175.67489 2693 ft 114 kts 25°
2026-04-30 10:06 -40.23291 175.67729 2680 ft 114 kts 25°
2026-04-30 10:06 -40.22516 175.67971 2691 ft 114 kts 25°
2026-04-30 10:07 -40.21749 175.68221 2695 ft 114 kts 26°
2026-04-30 10:07 -40.21059 175.68637 2700 ft 108 kts 44°
2026-04-30 10:07 -40.20390 175.69109 2695 ft 109 kts 38°
2026-04-30 10:07 -40.19761 175.69618 2754 ft 102 kts 58°
2026-04-30 10:08 -40.19801 175.70419 2787 ft 99 kts 135°
2026-04-30 10:08 -40.20466 175.70747 2815 ft 106 kts 155°
2026-04-30 10:08 -40.21046 175.71276 2766 ft 102 kts 117°
2026-04-30 10:08 -40.21040 175.72168 2786 ft 100 kts 84°
2026-04-30 10:09 -40.21090 175.73057 2802 ft 99 kts 98°
2026-04-30 10:09 -40.21159 175.73955 2817 ft 99 kts 101°
2026-04-30 10:09 -40.21233 175.74854 2809 ft 99 kts 98°
2026-04-30 10:09 -40.21306 175.75745 2829 ft 98 kts 99°
2026-04-30 10:10 -40.21376 175.76649 2842 ft 101 kts 101°
2026-04-30 10:10 -40.21443 175.77557 2854 ft 100 kts 98°
2026-04-30 10:10 -40.21507 175.78449 2869 ft 99 kts 98°
2026-04-30 10:10 -40.21570 175.79333 2882 ft 97 kts 98°
2026-04-30 10:11 -40.21631 175.80204 2901 ft 96 kts 98°
2026-04-30 10:11 -40.21686 175.81083 2909 ft 99 kts 97°
2026-04-30 10:11 -40.21740 175.81994 2929 ft 101 kts 98°
2026-04-30 10:11 -40.21797 175.82921 2952 ft 103 kts 99°
2026-04-30 10:12 -40.21859 175.83860 2963 ft 104 kts 99°
2026-04-30 10:12 -40.21962 175.84720 3185 ft 88 kts 102°
2026-04-30 10:12 -40.22065 175.85488 3293 ft 89 kts 103°
2026-04-30 10:12 -40.22190 175.86232 3572 ft 75 kts 100°
2026-04-30 10:13 -40.22262 175.86903 3643 ft 70 kts 98°
2026-04-30 10:13 -40.22276 175.87538 3771 ft 69 kts 84°
2026-04-30 10:13 -40.22285 175.88222 3960 ft 79 kts 100°
2026-04-30 10:13 -40.22342 175.88948 4136 ft 82 kts 97°
2026-04-30 10:14 -40.22368 175.89745 4112 ft 95 kts 92°
2026-04-30 10:14 -40.22444 175.90646 4096 ft 99 kts 102°
2026-04-30 10:14 -40.22611 175.92424 4280 ft 97 kts 97°
2026-04-30 10:15 -40.22687 175.93266 4391 ft 92 kts 100°
2026-04-30 10:15 -40.22833 175.94126 4144 ft 107 kts 106°
2026-04-30 10:15 -40.23118 175.95026 3938 ft 101 kts 117°
2026-04-30 10:15 -40.23464 175.95763 3864 ft 93 kts 120°
2026-04-30 10:16 -40.23660 175.96586 3471 ft 109 kts 101°
2026-04-30 10:16 -40.23614 175.97502 3404 ft 95 kts 86°
2026-04-30 10:16 -40.23527 175.98340 3244 ft 95 kts 86°
2026-04-30 10:17 -40.23283 175.99878 3159 ft 83 kts 76°
2026-04-30 10:17 -40.22901 176.01362 2927 ft 94 kts 80°
2026-04-30 10:17 -40.22746 176.02228 2629 ft 101 kts 83°
2026-04-30 10:18 -40.22651 176.03114 2477 ft 94 kts 88°
2026-04-30 10:18 -40.22575 176.03936 2395 ft 86 kts 83°
2026-04-30 10:18 -40.22368 176.04669 2285 ft 87 kts 70°
2026-04-30 10:19 -40.21848 176.06098 2009 ft 92 kts 81°
2026-04-30 10:19 -40.21632 176.06857 1938 ft 88 kts 66°
2026-04-30 10:19 -40.21383 176.07593 1756 ft 93 kts 84°
2026-04-30 10:19 -40.21379 176.08482 1427 ft 106 kts 112°
2026-04-30 10:20 -40.21884 176.08846 1291 ft 76 kts 192°
2026-04-30 10:20 -40.22827 176.08289 691 ft 71 kts 217°
2026-04-30 10:20 -40.23165 176.07941 674 ft 58 kts 216°
2026-04-30 10:21 -40.23488 176.07618 762 ft 64 kts 219°
2026-04-30 10:21 -40.23890 176.07168 891 ft 79 kts 222°
2026-04-30 10:21 -40.24301 176.06699 1147 ft 79 kts 233°
2026-04-30 10:21 -40.24342 176.06021 1396 ft 80 kts 306°
2026-04-30 10:22 -40.23848 176.05734 1607 ft 84 kts 15°
2026-04-30 10:22 -40.23322 176.06173 1673 ft 102 kts 47°
2026-04-30 10:22 -40.22740 176.06793 1758 ft 112 kts 41°
2026-04-30 10:22 -40.22168 176.07377 2113 ft 98 kts 46°
2026-04-30 10:23 -40.21650 176.07898 2420 ft 90 kts 44°
2026-04-30 10:23 -40.21063 176.08363 2558 ft 100 kts 39°
2026-04-30 10:23 -40.20472 176.08781 2816 ft 96 kts 39°
2026-04-30 10:23 -40.19879 176.09196 3012 ft 97 kts 39°
2026-04-30 10:24 -40.19296 176.09607 3232 ft 96 kts 39°
2026-04-30 10:24 -40.18702 176.10021 3434 ft 96 kts 39°
2026-04-30 10:24 -40.18129 176.10435 3658 ft 94 kts 39°
2026-04-30 10:24 -40.17555 176.10847 3848 ft 94 kts 39°
2026-04-30 10:25 -40.17196 176.11482 4056 ft 88 kts 70°
2026-04-30 10:25 -40.16898 176.12193 4228 ft 89 kts 69°
2026-04-30 10:25 -40.16605 176.12912 4398 ft 90 kts 69°
2026-04-30 10:25 -40.16311 176.13629 4570 ft 90 kts 69°
2026-04-30 10:26 -40.16015 176.14348 4748 ft 90 kts 69°
2026-04-30 10:26 -40.15724 176.15057 4903 ft 90 kts 70°
2026-04-30 10:26 -40.15425 176.15794 4984 ft 97 kts 70°
2026-04-30 10:26 -40.14980 176.16531 4979 ft 108 kts 54°
2026-04-30 10:27 -40.14462 176.17255 4977 ft 111 kts 56°
2026-04-30 10:27 -40.13929 176.17994 4975 ft 113 kts 55°
2026-04-30 10:27 -40.13391 176.18743 4978 ft 113 kts 55°
2026-04-30 10:27 -40.12853 176.19501 4981 ft 114 kts 56°
2026-04-30 10:28 -40.12313 176.20276 4980 ft 117 kts 56°
2026-04-30 10:28 -40.11763 176.21070 4987 ft 118 kts 54°
2026-04-30 10:28 -40.11219 176.21858 4978 ft 118 kts 56°
2026-04-30 10:28 -40.10667 176.22659 4977 ft 119 kts 55°
2026-04-30 10:29 -40.10111 176.23458 4980 ft 119 kts 54°
2026-04-30 10:29 -40.09552 176.24260 4978 ft 120 kts 55°
2026-04-30 10:29 -40.08997 176.25066 4980 ft 120 kts 55°
2026-04-30 10:29 -40.08447 176.25866 4960 ft 118 kts 53°
2026-04-30 10:30 -40.07881 176.26709 4482 ft 124 kts 59°
2026-04-30 10:30 -40.07487 176.27627 4132 ft 107 kts 67°
2026-04-30 10:30 -40.07199 176.28405 4037 ft 88 kts 65°
2026-04-30 10:30 -40.06800 176.29057 3912 ft 98 kts 52°
2026-04-30 10:31 -40.06340 176.29696 3876 ft 94 kts 55°
2026-04-30 10:31 -40.05929 176.30307 3866 ft 91 kts 53°
2026-04-30 10:31 -40.05508 176.30957 3687 ft 101 kts 58°
2026-04-30 10:31 -40.05080 176.31683 3624 ft 97 kts 59°
2026-04-30 10:32 -40.04652 176.32417 3459 ft 103 kts 57°
2026-04-30 10:32 -40.04228 176.33154 3421 ft 96 kts 61°
2026-04-30 10:32 -40.03886 176.33891 3304 ft 100 kts 65°
2026-04-30 10:32 -40.03504 176.34723 3024 ft 112 kts 65°
2026-04-30 10:33 -40.03129 176.35595 2834 ft 113 kts 67°
2026-04-30 10:33 -40.02800 176.36465 2837 ft 98 kts 70°
2026-04-30 10:33 -40.02505 176.37204 2892 ft 88 kts 69°
2026-04-30 10:33 -40.02258 176.37914 2884 ft 86 kts 74°
2026-04-30 10:34 -40.02007 176.38627 2892 ft 84 kts 67°
2026-04-30 10:34 -40.01707 176.39274 2889 ft 83 kts 74°
2026-04-30 10:34 -40.01519 176.39976 2881 ft 84 kts 77°
2026-04-30 10:34 -40.01340 176.40677 2911 ft 78 kts 77°
2026-04-30 10:35 -40.01162 176.41258 3007 ft 68 kts 66°
2026-04-30 10:35 -40.00781 176.41866 2646 ft 107 kts 58°
2026-04-30 10:35 -40.00369 176.42637 2642 ft 98 kts 54°
2026-04-30 10:35 -39.99921 176.43220 2693 ft 89 kts 52°
2026-04-30 10:36 -39.99498 176.43789 2722 ft 83 kts 56°
2026-04-30 10:36 -39.99146 176.44201 2804 ft 76 kts 49°